Tiruchchirapalli, India

8:47 PM IST on January 22, 2017 (GMT +0530)
Tiruchirappalli

Weather History for VOTR - March, 2012

Change the Weather History Date:

Wednesday, March 28, 2012

  Actual Average Record
Temperature  
Mean Temperature 88 °F -  
Max Temperature 99 °F 94 °F 103 °F (2013)
Min Temperature 77 °F 80 °F 71 °F (2014)
Cooling Degree Days 23    
Growing Degree Days 38 (Base 50)    
Moisture  
Dew Point 72 °F    
Average Humidity 62    
Maximum Humidity 89    
Minimum Humidity 27    
Precipitation  
Precipitation 0.00 in - - ()
Sea Level Pressure  
Sea Level Pressure 29.92 in    
Wind  
Wind Speed 5 mph ()    
Max Wind Speed 72 mph    
Max Gust Speed -    
Visibility 4.0 miles    
Events      
Averages and records for this station are not official NWS values.
T = Trace of Precipitation, MM = Missing Value Source: Averaged Metar Reports

Daily Weather History Graph

Daily Weather History Graph

Search for Another Location

Airport or City:

Trip Planner

Search our weather history database for the weather conditions in past years. The results will help you decide how hot, cold, wet, or windy it might be!

Date:

Astronomy

Mar. 28, 2012 Rise Set
Actual Time 6:14 AM IST 6:25 PM IST
Civil Twilight 5:53 AM IST 6:47 PM IST
Nautical Twilight 5:28 AM IST 7:11 PM IST
Astronomical Twilight 5:04 AM IST 7:36 PM IST
Moon 10:02 AM IST (3/28) 11:01 PM IST (3/28)
Length of Visible Light 12h 53m
Length of Day
12h 11m
Waxing Crescent, 26% of the Moon is Illuminated
Mar 28
Waxing Crescent
Mar 31
First Quarter
Apr 7
Full
Apr 13
Last Quarter
Apr 21
New

Hourly Weather History & Observations

Time (IST) Temp. Heat Index Dew Point Humidity Pressure Visibility Wind Dir Wind Speed Gust Speed Precip Events Conditions
12:10 AM 80.6 °F 86.2 °F 75.2 °F 84% 29.95 in 3.7 mi East 3.5 mph - N/A   Scattered Clouds
12:40 AM 80.6 °F 86.2 °F 75.2 °F 84% 29.92 in 3.7 mi East 4.6 mph - N/A   Scattered Clouds
1:10 AM 78.8 °F - 75.2 °F 89% 29.92 in 3.7 mi East 2.3 mph - N/A   Scattered Clouds
1:40 AM 78.8 °F - 75.2 °F 89% 29.92 in 3.7 mi ENE 2.3 mph - N/A   Scattered Clouds
2:10 AM 78.8 °F - 75.2 °F 89% 29.92 in 3.7 mi ENE 2.3 mph - N/A   Scattered Clouds
2:30 AM 80 °F - 75 °F 80% 29.91 in 2 mi ENE 2.3 mph - -   Haze
2:40 AM 78.8 °F - 75.2 °F 89% 29.92 in 3.7 mi ENE 2.3 mph - N/A   Scattered Clouds
3:10 AM 78.8 °F - 75.2 °F 89% 29.92 in 3.7 mi East 2.3 mph - N/A   Scattered Clouds
3:40 AM 78.8 °F - 75.2 °F 89% 29.89 in 3.7 mi ENE 2.3 mph - N/A   Scattered Clouds
4:10 AM 78.8 °F - 75.2 °F 89% 29.92 in 3.7 mi NE 2.3 mph - N/A   Scattered Clouds
4:40 AM 78.8 °F - 75.2 °F 89% 29.92 in 3.7 mi NE 2.3 mph - N/A   Scattered Clouds
5:10 AM 78.8 °F - 75.2 °F 89% 29.92 in 3.7 mi Variable 2.3 mph - N/A   Scattered Clouds
5:30 AM 78 °F - 75 °F 88% 29.91 in 2 mi NNE 4.6 mph - -   Haze
5:40 AM 78.8 °F - 75.2 °F 89% 29.92 in 3.1 mi NNE 72.5 mph - N/A   Haze
6:10 AM 78.8 °F - 75.2 °F 89% 29.92 in 3.1 mi NNE 3.5 mph - N/A   Haze
7:10 AM 78.8 °F - 75.2 °F 89% 29.95 in 1.2 mi NE 2.3 mph - N/A   Scattered Clouds
7:40 AM 80.6 °F 86.2 °F 75.2 °F 84% 29.95 in 1.2 mi NNE 3.5 mph - N/A   Scattered Clouds
8:30 AM 85 °F - 73 °F 61% 29.97 in 2 mi Calm Calm - -   Haze
8:40 AM 84.2 °F 90.9 °F 73.4 °F 70% 29.98 in 2.5 mi Calm Calm - N/A   Haze
9:40 AM 87.8 °F 95.6 °F 73.4 °F 62% 29.98 in 3.7 mi SSE 3.5 mph - N/A   Scattered Clouds
10:10 AM 89.6 °F 96.2 °F 71.6 °F 55% 29.98 in 3.7 mi SE 2.3 mph - N/A   Scattered Clouds
10:40 AM 91.4 °F 98.4 °F 71.6 °F 52% 29.98 in 3.7 mi SE 2.3 mph - N/A   Scattered Clouds
11:10 AM 93.2 °F 100.5 °F 71.6 °F 49% 29.98 in - East 4.6 mph - N/A   Scattered Clouds
11:30 AM 93 °F - 70 °F 38% 29.95 in 2 mi East 6.9 mph - -   Haze
11:40 AM 93.2 °F 98.8 °F 69.8 °F 46% 29.95 in 5.0 mi East 6.9 mph - N/A   Scattered Clouds
12:10 PM 95.0 °F 101.3 °F 69.8 °F 44% 29.95 in 6.2 mi East 4.6 mph - N/A   Scattered Clouds
12:40 PM 95.0 °F 101.3 °F 69.8 °F 44% 29.95 in 6.2 mi NNE 5.8 mph - N/A   Scattered Clouds
1:10 PM 95.0 °F 101.3 °F 69.8 °F 44% 29.92 in 6.2 mi Variable 3.5 mph - N/A   Scattered Clouds
1:40 PM 96.8 °F 103.1 °F 69.8 °F 41% 29.89 in 6.2 mi NE 3.5 mph - N/A   Scattered Clouds
2:10 PM 98.6 °F 105.5 °F 69.8 °F 39% 29.86 in 6.2 mi Calm Calm - N/A   Scattered Clouds
2:30 PM 98 °F - 67 °F 27% 29.84 in 6 mi Calm Calm - -   Partly Cloudy
2:40 PM 98.6 °F 105.5 °F 69.8 °F 39% 29.86 in 6.2 mi Calm Calm - N/A   Scattered Clouds
3:10 PM 98.6 °F 105.5 °F 69.8 °F 39% 29.83 in 6.2 mi East 3.5 mph - N/A   Scattered Clouds
3:40 PM 96.8 °F 103.1 °F 69.8 °F 41% 29.83 in 6.2 mi ENE 4.6 mph - N/A   Scattered Clouds
4:10 PM 96.8 °F 103.1 °F 69.8 °F 41% 29.83 in 6.2 mi ENE 4.6 mph - N/A   Scattered Clouds
4:40 PM 96.8 °F 103.1 °F 69.8 °F 41% 29.83 in 6.2 mi East 6.9 mph - N/A   Scattered Clouds
5:10 PM 96.8 °F 103.1 °F 69.8 °F 41% 29.83 in 6.2 mi East 11.5 mph - N/A   Scattered Clouds
5:30 PM 96 °F - 66 °F 28% 29.82 in 2 mi East 9.2 mph - -   Haze
5:40 PM 96.8 °F 101.8 °F 68.0 °F 39% 29.83 in 5.0 mi East 9.2 mph - N/A   Scattered Clouds
6:10 PM 77.0 °F - 68.0 °F 74% 29.83 in 5.0 mi ESE 11.5 mph - N/A   Partly Cloudy
6:40 PM 93.2 °F 97.7 °F 68.0 °F 44% 29.86 in 3.7 mi SE 9.2 mph - N/A   Partly Cloudy
7:10 PM 89.6 °F 93.4 °F 68.0 °F 49% 29.86 in 3.7 mi SSE 13.8 mph - N/A   Partly Cloudy
7:40 PM 87.8 °F 91.4 °F 68.0 °F 52% 29.89 in 3.7 mi SE 11.5 mph - N/A   Partly Cloudy
8:10 PM 86.0 °F 90.4 °F 69.8 °F 58% 29.92 in 3.7 mi SE 12.7 mph - N/A   Unknown
8:30 PM 86 °F - 69 °F 47% 29.93 in 2 mi SE 10.4 mph - -   Haze
8:40 PM 86.0 °F 90.4 °F 69.8 °F 58% 29.95 in 3.7 mi SSE 9.2 mph - N/A   Unknown
9:10 PM 86.0 °F 90.4 °F 69.8 °F 58% 29.95 in 3.7 mi SE 6.9 mph - N/A   Unknown
9:40 PM 84.2 °F 88.4 °F 69.8 °F 62% 29.95 in 3.7 mi SE 6.9 mph - N/A   Unknown
10:10 PM 84.2 °F 88.4 °F 69.8 °F 62% 29.98 in 3.7 mi SE 5.8 mph - N/A   Unknown
10:40 PM 82.4 °F 86.3 °F 69.8 °F 66% 29.98 in 3.7 mi ESE 6.9 mph - N/A   Unknown
11:10 PM 82.4 °F 87.2 °F 71.6 °F 70% 29.98 in 3.7 mi SSE 3.5 mph - N/A   Unknown
11:30 PM 81 °F - 70 °F 62% 29.96 in 2 mi ESE 3.5 mph - -   Haze
11:40 PM 80.6 °F 83.9 °F 69.8 °F 70% 29.95 in 3.7 mi East 3.5 mph - N/A   Unknown